0 GLOBALSTAR M001 1 25162U 98008A 24263.52338241 -.00000110 00000-0 -10025-3 0 9991 2 25162 52.0048 41.0017 0002064 61.5117 339.6382 12.38194449210184 0 GLOBALSTAR M004 1 25163U 98008B 24263.44987926 -.00000050 00000-0 29557-3 0 9995 2 25163 51.9988 160.0938 0003727 52.2506 118.8553 12.63372142227468 0 GLOBALSTAR M002 1 25164U 98008C 24263.51427004 -.00000063 00000-0 27370-3 0 9995 2 25164 51.9999 198.8685 0001890 20.9127 339.1769 11.61504167152611 0 GLOBALSTAR M003 1 25165U 98008D 24263.57411131 .00000048 00000-0 14653-2 0 9997 2 25165 51.9915 197.9988 0008367 107.1963 63.1967 12.12037661200400 0 GLOBALSTAR M014 1 25306U 98023A 24263.39221918 -.00000030 00000-0 89836-3 0 9991 2 25306 51.9820 128.0939 0000425 146.4467 24.2662 11.65471574159590 0 GLOBALSTAR M006 1 25307U 98023B 24263.50117957 -.00000028 00000-0 97377-3 0 9998 2 25307 51.9927 170.1747 0003952 347.7201 182.9904 11.58166446185461 0 GLOBALSTAR M015 1 25308U 98023C 24263.48896337 -.00000075 00000-0 -31362-4 0 9998 2 25308 51.9800 256.2710 0012629 315.4765 217.0326 11.48850559162968 0 GLOBALSTAR M008 1 25309U 98023D 24263.18219458 -.00000082 00000-0 11302-3 0 9997 2 25309 51.9954 263.7584 0002498 330.0231 109.2414 12.36049339204337 0 GLOBALSTAR M023 1 25621U 99004A 24263.46166366 .00000057 00000-0 89370-3 0 9995 2 25621 52.0092 157.7947 0009302 249.4753 282.4888 12.62473368181534 0 GLOBALSTAR M040 1 25622U 99004B 24263.48948049 -.00000029 00000-0 41855-3 0 9990 2 25622 51.9899 161.4601 0000975 113.3592 58.3747 12.61983867181076 0 GLOBALSTAR M036 1 25623U 99004C 24263.32336837 -.00000094 00000-0 -17146-3 0 9999 2 25623 51.9949 234.2473 0010527 253.5177 255.4589 11.86582457146823 0 GLOBALSTAR M038 1 25624U 99004D 24263.55026219 -.00000044 00000-0 42098-3 0 9993 2 25624 51.9952 130.9645 0001296 185.2061 201.1306 12.32508201169004 0 GLOBALSTAR M022 1 25649U 99012A 24263.53059649 -.00000047 00000-0 47824-3 0 9995 2 25649 52.0050 306.6672 0002278 1.2476 147.8863 12.02488189143816 0 GLOBALSTAR M041 1 25650U 99012B 24263.50547924 -.00000103 00000-0 -23379-3 0 9995 2 25650 52.0009 179.9299 0002547 138.2311 221.8720 11.96660049145878 0 GLOBALSTAR M046 1 25651U 99012C 24263.44615463 -.00000058 00000-0 34092-3 0 9995 2 25651 52.0043 266.9126 0002438 70.5190 76.7385 12.09397927150906 0 GLOBALSTAR M037 1 25652U 99012D 24263.57940144 -.00000011 00000-0 51920-3 0 9995 2 25652 51.9997 288.1545 0001661 311.7111 189.6445 12.62418855177097 0 GLOBALSTAR M045 1 25676U 99019A 24263.57012126 -.00000108 00000-0 -12819-3 0 9990 2 25676 52.0001 356.5774 0000816 90.7300 282.4414 12.27044901160414 0 GLOBALSTAR M019 1 25677U 99019B 24263.51032054 -.00000098 00000-0 -81478-4 0 9993 2 25677 51.9862 108.0668 0001737 107.3993 262.8171 12.13864403152275 0 GLOBALSTAR M044 1 25678U 99019C 24263.59103816 -.00000050 00000-0 46405-3 0 9994 2 25678 51.9999 25.3495 0005875 232.7245 139.9352 11.90238789139081 0 GLOBALSTAR M042 1 25679U 99019D 24263.84553907 -.00000070 00000-0 20709-3 0 9994 2 25679 51.9999 94.1263 0003762 95.7110 35.2315 12.22068126152275 0 GLOBALSTAR M025 1 25770U 99031A 24263.41776532 -.00000073 00000-0 -16156-3 0 9999 2 25770 51.9820 66.5237 0002202 65.4185 306.3825 11.22554165451304 0 GLOBALSTAR M049 1 25771U 99031B 24263.53466630 -.00000098 00000-0 -11416-2 0 9998 2 25771 51.9861 87.4152 0002379 291.1064 68.9478 11.12109412 87318 0 GLOBALSTAR M047 1 25772U 99031C 24263.57429973 -.00000045 00000-0 68509-3 0 9999 2 25772 51.9814 110.1506 0016435 154.7947 205.3663 11.31923218440467 0 GLOBALSTAR M052 1 25773U 99031D 24263.61844918 -.00000089 00000-0 -78921-3 0 9993 2 25773 51.9846 199.7083 0002958 72.9946 98.0673 11.15053765448325 0 GLOBALSTAR M035 1 25851U 99037A 24263.42768312 -.00000050 00000-0 52449-3 0 9992 2 25851 51.9954 298.7869 0013630 263.2467 109.3379 11.04532602 66343 0 GLOBALSTAR M032 1 25852U 99037B 24263.41323094 -.00000029 00000-0 12280-2 0 9990 2 25852 51.9927 142.6934 0011333 70.3378 289.8643 11.19063451104472 0 GLOBALSTAR M051 1 25853U 99037C 24263.37744926 -.00000035 00000-0 90668-3 0 9991 2 25853 51.9826 334.1873 0001679 97.9882 262.1119 11.42200480101445 0 GLOBALSTAR M030 1 25854U 99037D 24263.40285604 -.00000012 00000-0 13328-2 0 9991 2 25854 51.9862 157.4481 0003333 289.5323 70.5134 11.55101367118753 0 GLOBALSTAR M048 1 25872U 99041A 24263.50092542 -.00000077 00000-0 -18366-3 0 9994 2 25872 51.9345 258.4572 0013361 75.1634 100.6805 11.33849397 94276 0 GLOBALSTAR M026 1 25873U 99041B 24263.38440042 -.00000149 00000-0 -31364-2 0 9995 2 25873 52.0022 59.6810 0001851 125.4681 248.2554 11.06832739118504 0 GLOBALSTAR M043 1 25874U 99041C 24263.51255233 -.00000119 00000-0 -15117-2 0 9992 2 25874 51.9444 355.2845 0012956 207.2401 165.8202 11.25685350 92399 0 GLOBALSTAR M028 1 25875U 99041D 24263.44814692 -.00000070 00000-0 19233-3 0 9994 2 25875 51.9615 280.3523 0063395 203.3297 156.4683 12.50564726156307 0 GLOBALSTAR M024 1 25883U 99043A 24263.74387812 -.00000114 00000-0 -17293-2 0 9990 2 25883 52.0002 270.8377 0001509 13.0378 157.9012 11.10163229 84854 0 GLOBALSTAR M027 1 25884U 99043B 24263.50154277 -.00000047 00000-0 63640-3 0 9994 2 25884 52.0254 341.6966 0020785 273.5629 86.2786 11.04369596111338 0 GLOBALSTAR M054 1 25885U 99043C 24263.46671536 -.00000149 00000-0 -19878-2 0 9999 2 25885 52.0113 154.5028 0006376 73.4465 97.2791 11.39207303 88198 0 GLOBALSTAR M053 1 25886U 99043D 24263.52549177 -.00000052 00000-0 47435-3 0 9995 2 25886 51.9971 86.4380 0003377 358.9675 13.3514 11.27658985 88910 0 GLOBALSTAR M058 1 25907U 99049A 24263.81286563 -.00000042 00000-0 57464-3 0 9996 2 25907 51.9921 111.1382 0002732 104.0452 256.0687 11.93182942120477 0 GLOBALSTAR M050 1 25908U 99049B 24263.86247021 -.00000110 00000-0 -25098-3 0 9993 2 25908 51.9971 138.8775 0008401 210.2433 262.6034 12.07440346120260 0 GLOBALSTAR M033 1 25909U 99049C 24263.63881493 .00000002 00000-0 89890-3 0 9994 2 25909 51.9937 30.0120 0013422 70.5901 289.6396 12.20279967135446 0 GLOBALSTAR M055 1 25910U 99049D 24263.44320088 -.00000084 00000-0 89152-4 0 9996 2 25910 52.0025 54.4846 0006277 291.5813 68.4369 12.29409291134985 0 GLOBALSTAR M057 1 25943U 99058A 24263.34152518 -.00000037 00000-0 50988-3 0 9994 2 25943 52.0004 36.8429 0002699 161.9507 198.1439 12.24796985133749 0 GLOBALSTAR M059 1 25944U 99058B 24263.40032344 -.00000092 00000-0 -68121-4 0 9997 2 25944 51.9998 219.7311 0000531 70.8345 100.5639 11.99965734541533 0 GLOBALSTAR M056 1 25945U 99058C 24263.40088032 -.00000041 00000-0 54830-3 0 9997 2 25945 51.9943 228.6408 0001153 10.3111 156.4343 12.04778054129988 0 GLOBALSTAR M031 1 25946U 99058D 24263.64448420 -.00000042 00000-0 49019-3 0 9999 2 25946 51.9946 136.5020 0001779 15.6395 1.3594 12.16016501131631 0 GLOBALSTAR M039 1 25961U 99062A 24263.60402090 -.00000066 00000-0 20945-3 0 9993 2 25961 51.9873 12.8454 0003452 108.7434 251.3807 12.62303219146076 0 GLOBALSTAR M034 1 25962U 99062B 24263.79201149 -.00000051 00000-0 48168-3 0 9997 2 25962 51.9907 354.2531 0013621 249.1757 259.0288 11.79432394106473 0 GLOBALSTAR M029 1 25963U 99062C 24263.60976017 -.00000067 00000-0 23326-3 0 9997 2 25963 51.9787 107.4335 0002082 324.9961 71.2257 11.99883152136644 0 GLOBALSTAR M061 1 25964U 99062D 24263.52779243 -.00000035 00000-0 73712-3 0 9990 2 25964 51.9781 175.3849 0005631 170.6137 0.4837 11.76765506 89313 0 GLOBALSTAR M063 1 26081U 00008A 24263.56939602 .00000008 00000-0 13341-2 0 9994 2 26081 51.9935 104.2757 0005035 142.8532 251.5828 11.86158733125467 0 GLOBALSTAR M062 1 26082U 00008B 24263.49907431 -.00000014 00000-0 59940-3 0 9996 2 26082 51.9836 171.7835 0006363 256.9265 274.0745 12.43446685462944 0 GLOBALSTAR M060 1 26083U 00008C 24263.67146664 .00000084 00000-0 17389-2 0 9996 2 26083 52.0006 93.0120 0002543 305.9938 129.0591 12.17644102119589 0 GLOBALSTAR M064 1 26084U 00008D 24263.84655206 -.00000081 00000-0 27657-4 0 9992 2 26084 52.0013 205.5616 0001034 274.7152 85.3562 11.88522780135060 0 GLOBALSTAR M065 1 31571U 07020A 24263.50541249 .00000012 00000-0 64696-3 0 9990 2 31571 51.9910 330.1212 0010316 68.9276 304.4480 12.61976880799236 0 GLOBALSTAR M069 1 31573U 07020C 24263.54925906 -.00000057 00000-0 26927-3 0 9997 2 31573 51.9942 285.9683 0000254 250.3669 273.5665 12.58765230800364 0 GLOBALSTAR M072 1 31574U 07020D 24263.40102021 -.00000083 00000-0 11584-3 0 9990 2 31574 52.0108 22.1695 0001019 116.1910 285.3393 12.62264101798623 0 GLOBALSTAR M071 1 31576U 07020F 24263.52728057 -.00000053 00000-0 28469-3 0 9995 2 31576 52.0065 291.0024 0000745 238.9529 239.7592 12.62257287800281 0 GLOBALSTAR M067 1 32263U 07048A 24263.01848317 -.00000048 00000-0 36948-3 0 9990 2 32263 51.9710 109.3843 0001628 101.5893 64.1060 12.40655171775821 0 GLOBALSTAR M070 1 32264U 07048B 24263.35537609 -.00000090 00000-0 75276-4 0 9992 2 32264 51.9731 233.5570 0000147 81.2556 70.2616 12.62300470779469 0 GLOBALSTAR M066 1 32265U 07048C 24263.83735476 -.00000071 00000-0 18785-3 0 9998 2 32265 51.9663 96.0497 0001286 17.4678 110.2074 12.53546090782697 0 GLOBALSTAR M068 1 32266U 07048D 24263.45418828 -.00000118 00000-0 -78099-4 0 9994 2 32266 51.9894 47.5250 0000275 202.1621 196.5983 12.62800329783358 0 GLOBALSTAR M079 1 37188U 10054A 24263.30544507 -.00000102 00000-0 12085-4 0 9996 2 37188 52.0021 244.3952 0000637 61.0406 76.8968 12.62264207642245 0 GLOBALSTAR M074 1 37189U 10054B 24263.41526872 -.00000121 00000-0 -94346-4 0 9996 2 37189 51.9998 243.4212 0000393 82.8170 76.7795 12.62289130642861 0 GLOBALSTAR M076 1 37190U 10054C 24263.36060175 -.00000112 00000-0 -47126-4 0 9995 2 37190 52.0012 243.7412 0000720 90.5959 55.9888 12.62270111642571 0 GLOBALSTAR M077 1 37191U 10054D 24263.58995625 -.00000085 00000-0 10467-3 0 9992 2 37191 52.0058 199.8180 0000525 64.3497 106.6554 12.62263848642971 0 GLOBALSTAR M075 1 37192U 10054E 24263.53478948 -.00000086 00000-0 96878-4 0 9994 2 37192 51.9936 285.6180 0000387 82.2412 78.0384 12.62264875641828 0 GLOBALSTAR M073 1 37193U 10054F 24263.53727824 -.00000090 00000-0 78023-4 0 9992 2 37193 52.0045 199.2197 0000676 73.8501 97.6627 12.62269684643659 0 GLOBALSTAR M083 1 37739U 11033A 24263.47104249 -.00000059 00000-0 24720-3 0 9998 2 37739 51.9848 148.5225 0000840 59.8001 111.4679 12.62264791612668 0 GLOBALSTAR M088 1 37740U 11033B 24263.91904071 -.00000108 00000-0 -23392-4 0 9991 2 37740 51.9738 52.8727 0000854 82.3116 86.6991 12.62267688608556 0 GLOBALSTAR M091 1 37741U 11033C 24263.58158166 -.00000091 00000-0 72223-4 0 9998 2 37741 52.0019 16.9760 0000691 76.3793 296.4124 12.62267102609272 0 GLOBALSTAR M085 1 37742U 11033D 24263.59776201 -.00000067 00000-0 20451-3 0 9994 2 37742 51.9885 328.2062 0000485 76.9804 70.6826 12.62265989609526 0 GLOBALSTAR M081 1 37743U 11033E 24263.53115019 -.00000066 00000-0 21142-3 0 9990 2 37743 51.9980 331.0290 0000727 84.3436 0.4634 12.62269464609666 0 GLOBALSTAR M089 1 37744U 11033F 24263.50705059 -.00000076 00000-0 15681-3 0 9999 2 37744 51.9921 285.3837 0000650 120.6385 32.9843 12.62269011610507 0 GLOBALSTAR M084 1 38040U 11080A 24263.44462287 -.00000059 00000-0 25174-3 0 9996 2 38040 51.9995 152.7144 0000688 94.0340 76.6889 12.62267636588478 0 GLOBALSTAR M080 1 38041U 11080B 24263.17874167 -.00000061 00000-0 23613-3 0 9990 2 38041 52.0049 155.0355 0000943 94.7596 67.0444 12.62265692588566 0 GLOBALSTAR M082 1 38042U 11080C 24263.81417611 -.00000070 00000-0 19119-3 0 9995 2 38042 52.0061 108.5179 0000694 40.9876 69.8520 12.62266873589529 0 GLOBALSTAR M092 1 38043U 11080D 24263.56342566 -.00000087 00000-0 96331-4 0 9994 2 38043 52.0070 199.6429 0000410 70.3880 100.6012 12.62266100587775 0 GLOBALSTAR M090 1 38044U 11080E 24263.84282958 -.00000081 00000-0 12701-3 0 9996 2 38044 51.9871 102.5870 0000753 63.0408 58.1018 12.62267905589512 0 GLOBALSTAR M086 1 38045U 11080F 24263.78699428 -.00000078 00000-0 14576-3 0 9992 2 38045 51.9883 103.2865 0001740 80.3825 27.5654 12.62267291589514 0 GLOBALSTAR M097 1 39072U 13005A 24263.63171861 -.00000102 00000-0 77290-5 0 9994 2 39072 52.0072 18.0329 0000855 81.2364 278.8600 12.62270461536640 0 GLOBALSTAR M093 1 39073U 13005B 24263.60483078 -.00000084 00000-0 11044-3 0 9990 2 39073 51.9839 11.8480 0000778 77.8614 282.2340 12.62264191536599 0 GLOBALSTAR M094 1 39074U 13005C 24263.52572931 -.00000088 00000-0 86751-4 0 9991 2 39074 51.9951 286.2035 0000539 63.4457 296.6465 12.62268355538191 0 GLOBALSTAR M096 1 39075U 13005D 24263.53895041 -.00000068 00000-0 19706-3 0 9996 2 39075 52.0096 334.4662 0000622 72.5979 287.4956 12.62270246537115 0 GLOBALSTAR M078 1 39076U 13005E 24263.51232715 -.00000109 00000-0 -26840-4 0 9993 2 39076 51.9876 59.4197 0000491 348.9733 11.1123 12.62274758535735 0 GLOBALSTAR M095 1 39077U 13005F 24263.45974442 -.00000111 00000-0 -39795-4 0 9993 2 39077 51.9805 56.9123 0000774 45.7427 314.3503 12.62264848535587 0 GLOBALSTAR M087 1 52888U 22064A 24263.40859991 -.00000108 00000-0 37603-4 0 9990 2 52888 51.9742 239.8325 0008948 243.0746 116.9241 13.37585809110137